Regional Weather Roundup
Issued by NWS

Home | Current Version | Previous Version | Graphics & Text | Print | Product List | Glossary On
Versions: 1 2 3 4 5 6 7 8 9 10 11 12 13 14 15 16 17 18 19 20 21 22 23 24 25 26 27 28 29 30 31 32 33 34 35 36 37 38 39 40 41 42 43 44 45 46 47 48 49 50
000
ASUS43 KLMK 290610
RWRKY
KENTUCKY REGIONAL WEATHER ROUNDUP
NATIONAL WEATHER SERVICE LOUISVILLE KY
200 AM EDT FRI MAY 29 2015

NOTE "FAIR" INDICATES FEW OR NO CLOUDS BELOW 12,000 FEET
WITH NO SIGNIFICANT WEATHER AND/OR OBSTRUCTIONS TO VISIBILITY.

KYZ001>023-026-027-061>063-070>075-290700-
WESTERN AND SOUTH CENTRAL KENTUCKY

CITY           SKY/WX    TMP DP  RH WIND       PRES   REMARKS
PADUCAH        CLEAR     70  66  87 S3        30.07S
HENDERSON      CLEAR     72  63  73 CALM      30.07F
OWENSBORO      CLEAR     71  67  87 SE6       30.09F
HOPKINSVILLE   MOCLDY    72  66  82 S7        30.09F
BOWLING GREEN  PTCLDY    73  63  70 S10       30.11F
GLASGOW        PTCLDY    69  63  80 S5        30.12F
$$

KYZ024-025-028>034-038-045-046-053-290700-
NORTH CENTRAL KENTUCKY

CITY           SKY/WX    TMP DP  RH WIND       PRES   REMARKS
LOUISVILLE/SDF PTCLDY    69  64  84 SE5       30.11F
LOUISVILLE/LOU CLEAR     68  64  87 CALM      30.12F
FORT KNOX      CLEAR     66  63  89 SE5       30.11F
$$

KYZ035>037-039>044-047>052-055>060-089>105-290700-
NORTHEAST KENTUCKY

CITY           SKY/WX    TMP DP  RH WIND       PRES   REMARKS
LEXINGTON      MOCLDY    65  64  97 CALM      30.15F FOG
COVINGTON      PTCLDY    69  65  86 S3        30.14F
FRANKFORT      CLOUDY    68  65  90 CALM      30.14F
$$

KYZ054-064>069-076>088-106>120-290700-
SOUTHEAST KENTUCKY

CITY           SKY/WX    TMP DP  RH WIND       PRES   REMARKS
JACKSON        MOCLDY    69  65  86 VRB3      30.19F
LONDON         MOCLDY    67  63  87 CALM      30.17F FOG
SOMERSET       FOG       63  63 100 CALM      30.17F VSB 1/2
MIDDLESBORO    MOCLDY    66  66  99 CALM      30.19F
MONTICELLO     PTCLDY    68  66  93 S6        30.18F
$$




USA.gov is the U.S. government's official web portal to all federal, state and local government web resources and services.